STARLINK-2687, 48466

Orbit data source: Space-Track

STARLINK-2687, 48466 is a payload satellite owned by SpaceX/Seattle (US) in LEO that was launched on Sun, 09 May 2021 UTC via an FALCON 9 launch vehicle from the Air Force Eastern Test Range (AFETR). Payload-class satellites include a variety of spacecraft equipped with specific instruments for various scientific and technological missions. These include communications satellites like Starlink; space stations such as the ISS; scientific satellites like the Hubble; Earth observation satellites from companies like Planet Labs, Umbra, and HawkEye 360; GPS; miniature CubeSats for education and research; and military/defense satellites.

Loading next visibility...
Identifier
48466, 2021-040AQ
Orbit
LEO
Country
Flag of USUS
Related business
Manufacturer
SpaceX/Seattle
Mission
Operational Commercial Communications
Bus & Motor
STARLINK, Unknown motor
Mass
260 kg wet, ~248 kg dry
Launch date (UTC)
2021-05-09 (5 years ago)
Launch vehicle
FALCON 9
Launch site
Air Force Eastern Test Range (AFETR)
Object type
Payload
Rocket body
Debris
Shape & HBR
Box + 1 Pan, 10.1 m
Radar Cross Section
13.562 m², Large (>1 m²)

Expand to show TLE details & history
Last TLE update: 2 days ago

TLE from 2 days ago
0 STARLINK-2687
1 48466U 21040AQ  26171.44924323  .00001343  00000-0  55011-4 0  9990
2 48466  53.1617  73.0513 0001387  86.2033 273.9127 15.31708996282252
Epoch: 2026-06-20T10:46Z
TLE epoch observation values (Epoch: 2026-06-20T10:46:54.615Z)
Latitude
Longitude
2.66003°
Altitude
471.549 km
Speed
7.632 km/s
True Right ascension
04h 52m 12s
True Declination
0° 00' 00"
Sunlit
Object was in daylight at epoch
Visualization orbit readout
Latitude
Unknown
Longitude
Unknown
Altitude
Unknown
Speed
Unknown
Apparent Right ascension
Unknown
Apparent Declination
Unknown
Sunlit
N/A
Visualization observer readout
Local Sidereal Time
21:24:46
Azimuth
Unknown
Elevation
Unknown
Doppler factor
Unknown
Orbital elements
Apogee altitude
471.919 km
Perigee altitude
470.02 km
Semi-major axis
6,849.106 km
Eccentricity
0.00014
Inclination
53.1617°
RAAN
73.0513°
Arg. of periapsis
86.2033°
True anomaly
273.89684°
Mean anomaly
273.9127°
Eccentric anomaly
273.90477°
Mean motion
3.82906 °/min
Orbital period
94.02 mins
BSTAR
0.000055011
Loading maneuver chart data...
Computing Atmospheric mass density...

Documentation

Showing up to 5 results
|